STARLINK-1881 (47166 NORAD) Tracking and Keplerian Element Data

This shows tracking and keplerian element data for the satellite.

Feedback or suggestion? Click here.




ElementValue
Catalog47166
NameSTARLINK-1881
Epoch Orbit176
Epoch Day62.91667824
Epoch Year2021
RAAN243.1027
Inclination53.0476
Eccentricity0.0001995
Argument of Perigee75.794
Mean Anonmoly171.0098
Mean Motion15.25155671
Decay Rate0.00044154
L11 47166U 20088AW 21062.91667824 .00044154 00000-0 17413-2 0 9992
L22 47166 53.0476 243.1027 0001995 75.7940 171.0098 15.25155671 1764

Live tracking and technical data element details for STARLINK-1881 (NORAD 47166). STARLINK-1881 can be tracked NOW for your location showing map with azimuth and elevation plus other details from your city location.

Track the satellite on the map from your city or location and see movement details for azimuth, elevation, latitude, longitude, range, height, and movement on the map or in text.







IsCatalogInMostPopularTable: catalog: 47166, numindb: 43
Update: records affected: 1



GetName: 47166 STARLINK-1881

Hit Count: updated at: Fri, 05 Mar 2021 07:37:31 GMT